Regional Weather Roundup
Issued by NWS Kansas City/Pleasant Hill, MO

Home | Current Version | Previous Version | Text Only | Print | Product List | Glossary On
Versions: 1 2 3 4 5 6 7 8 9 10 11 12 13 14 15 16 17 18 19 20 21 22 23 24 25 26 27 28 29 30 31 32 33 34 35 36 37 38 39 40 41 42 43 44 45 46 47 48 49 50
884
ASUS43 KEAX 291910
RWREAX

WEATHER ROUNDUP FOR EASTERN KANSAS AND NORTHWEST MISSOURI
NATIONAL WEATHER SERVICE KANSAS CITY/PLEASANT HILL MO
200 PM CDT THU SEP 29 2016

KSZ040-057-103>105-MOZ028-029-037-043-292000-
...KANSAS CITY METROPOLITAN AREA...

CITY           SKY/WX    TMP DP  RH WIND       PRES   REMARKS
K.C. INTL      MOSUNNY   69  49  48 N12       30.34F
K.C. DOWNTOWN  SUNNY     72  50  45 N10       30.33F
LEES SUMMIT    SUNNY     70  47  43 N15       30.33F
OLATHE - IXD   SUNNY     68  50  52 N13       30.35F
OLATHE - OJC   SUNNY     68  47  46 N10       30.34F
LAWRENCE       SUNNY     71  51  49 N7        30.35F

$$

MOZ001>008-011>017-020>025-030>033-038>040-044>046-053-054-292000-
...NORTHERN AND CENTRAL MISSOURI...

CITY           SKY/WX    TMP DP  RH WIND       PRES   REMARKS
ST. JOSEPH     SUNNY     71  47  42 NE9       30.36F
MOSBY          CLEAR     72  43  35 N10       30.32F
WHITEMAN AFB   SUNNY     73  46  39 NW12      30.28F
CLINTON        SUNNY     72  48  43 N13G18    30.31F
SEDALIA        SUNNY     75  45  34 N9G21     30.29F
WARSAW         NOT AVBL
CHILLICOTHE      N/A     74  48  39 N9        30.32F
KIRKSVILLE     SUNNY     74  51  44 N21G26    30.28F

$$

MOZ041-047>049-056>058-063>065-088>090-097-292000-
...EASTERN AND SOUTHERN MISSOURI...

CITY           SKY/WX    TMP DP  RH WIND       PRES   REMARKS
ST. LOUIS INTL CLOUDY    67  54  63 N15       30.19F
SPIRIT OF STL  PTSUNNY   67  55  65 NW12      30.19F
COLUMBIA       SUNNY     75  50  41 N16       30.24F
JEFFERSON CITY SUNNY     73  50  44 N10G20    30.23F
ROLLA          MOSUNNY   70  53  54 NW16G23   30.21F
OSAGE BEACH    SUNNY     71  51  49 N9        30.26F
SPRINGFIELD    SUNNY     71  42  35 N18       30.28F
BRANSON        SUNNY     72  45  37 NW12G17   30.27F
JOPLIN         SUNNY     69  51  52 N12       30.32F
WEST PLAINS    SUNNY     73  48  41 N13G24    30.23F

$$

IAZ060-094-KSZ022-034>040-054-083-096-NEZ052-066-093-292000-
...KANSAS...SOUTHEAST NEBRASKA AND IOWA...

CITY           SKY/WX    TMP DP  RH WIND       PRES   REMARKS
TOPEKA         MOSUNNY   70  51  51 N10       30.36F
MANHATTAN      MOSUNNY   68  49  50 E5        30.38F
EMPORIA        SUNNY     69  48  47 N9G18     30.36F
CHANUTE        SUNNY     71  50  47 N8        30.34F
WICHITA        MOSUNNY   69  50  50 N9        30.37F
OMAHA          MOSUNNY   69  50  50 N8G18     30.39F
LINCOLN        MOSUNNY   68  47  46 SE3       30.41F
FALLS CITY     MOSUNNY   70  51  51 MISG      30.36F
LAMONI         SUNNY     69  51  52 N9G20     30.35F
DES MOINES     MOSUNNY   72  49  44 N13       30.35F

$$





USA.gov is the U.S. government's official web portal to all federal, state and local government web resources and services.